Location: Hokitika
(42.7170°S, 170.9670°E)
Time: 17:08:02
(UTC+12:00)

Cosmos 1933 Rocket - Pass Details

Date: 24 January 2019
Orbit: 605 x 631 km, 82.5° (Epoch: 18 April)

Event Time Altitude Azimuth Distance (km) Brightness Sun altitude
Rises 22:41:52 0° 194° (SSW) 2,926 8.1 -14.7°
Reaches altitude 10° 22:44:10 10° 198° (SSW) 2,008 7.2 -15.0°
Maximum altitude 22:48:29 51° 273° (W) 778 4.3 -15.5°
Enters shadow 22:52:22 12° 348° (NNW) 1,833 5.6 -16.0°
